KCVG Airport Diagram

We have created a template for each of the higher traffic airports in the vZID airspace. They include KCMH, KCRW, KCVG, KDAY, KIND, KLEX and KSDF. You wil find usefull information including the airport diagram, weather, and specific airport procedures.

KCVG Weather

[Source: ADDS]
METAR
KCVG 181452Z 08005KT 8SM FEW250 01/M02 A3025 RMK AO2 SLP249 T00061017 51009 =
KCVG 181501Z 1815/1918 09004KT P6SM FEW250 FM190200 12003KT P6SM FEW250 FM191400 16006KT P6SM BKN250
TAF
KCVG 181501Z 1815/1918 09004KT P6SM FEW250 FM190200 12003KT P6SM FEW250 FM191400 16006KT P6SM BKN250 =

KCVG Operations

Calm Wind Configuration is Landing runways 36C and 36R, departing runway 27.

You can expect  this configuration up to and including a 10 knot tailwind.

The Center runway is the old 18R/36L in the default scenery. Additionally, runway 9/27 was lengthened to 12,000 feet when the west runway (18R/36L) was added.

Where parallel taxiways exist, inner taxiway is used by inbound traffic and outer taxiway is used by outbound traffic.

FDX & UPS use the ramp area at Terminal 1.

New Scenery is available at FlightSim.com.

On initial contact, arriving aircraft should notify the the controller which scenery they have.

 

JSN Epic template designed by JoomlaShine.com